English version Home page |
Updated on March 27, 2022 |
|
軌道要素Epoch 2022 Jan. 21.0 TT = JDT 2459600.5 T 2020 Dec. 7.10470 TT Rudenko q 3.4808503 (2000.0) P Q z +0.0000190 Peri. 336.30009 -0.87047908 -0.48688435 +/-0.0000001 Node 186.89537 -0.29729250 +0.40321331 e 0.9999338 Incl. 143.04352 -0.39227968 +0.77483072 From 157 observations 2021 Feb. 11-2022 Jan. 5, mean residual 0".5.
|
光度変化m1 = 11.0 + 5 logΔ + 10.0 log r
|
軌道要素はM.P.E.C. 2022-C56に掲載されたものです。
|